This demonstration page uses our WeatherBlox Daily Observations layout. Learn more.

Left ArrowRight Arrow

38.89511, -77.03637

Hourly Observations for May 20, 2017

Temp ( °F °C ) Dew Point ( °F °C ) Humidity (%) Winds ( mph kmh ) Pressure ( in mb ) Visibility ( mi km ) Precip ( " mm )
12:52 am 00:52 Mostly Cloudy 73 22.8 69 20.6 87 87 S 6 9 30.01 1016 10 16 0.00 0.00
1:52 am 01:52 Cloudy 72 22.2 69 20.6 91 91 S 6 9 29.99 1016 10 16 0.00 0.00
2:52 am 02:52 Cloudy 71 21.7 68 20 90 90 SSE 5 7 30.00 1016 10 16 0.00 0.00
3:52 am 03:52 Cloudy 71 21.7 68 20 90 90 SSW 5 7 30.01 1016 10 16 0.00 0.00
4:52 am 04:52 Cloudy 71 21.7 67 19.4 87 87 Calm 30.03 1017 10 16 0.00 0.00
5:52 am 05:52 Cloudy 72 22.2 69 20.6 91 91 ENE 12 19 30.06 1018 10 16 0.00 0.00
6:40 am 06:40 Cloudy 72 22.2 66 18.9 82 82 NE 16 26 30.09 1019 10 16 0.00 0.00
6:52 am 06:52 Cloudy 72 22.2 65 18.3 79 79 NE 9 15 30.10 1019 10 16 0.00 0.00
7:06 am 07:06 Mostly Cloudy 71 21.7 65 18.3 81 81 NNE 14 22 30.12 1020 10 16 0.00 0.00
7:13 am 07:13 Mostly Cloudy 71 21.7 65 18.3 81 81 NE 15 24 30.12 1020 10 16 0.00 0.00
7:15 am 07:15 Mostly Cloudy 71 21.7 64 17.8 79 79 NE 13 20 30.12 1020 10 16 0.00 0.00
7:23 am 07:23 Mostly Cloudy 71 21.7 63 17.2 76 76 NE 15 24 30.12 1020 10 16 0.00 0.00
7:52 am 07:52 Cloudy 71 21.7 64 17.8 79 79 NE 12 19 30.13 1020 10 16 0.00 0.00
8:32 am 08:32 Cloudy 71 21.7 60 15.6 68 68 E 16 26 30.15 1021 10 16 0.00 0.00
8:52 am 08:52 Cloudy 71 21.7 59 15 66 66 E 12 19 30.14 1021 10 16 0.00 0.00
9:52 am 09:52 Mostly Cloudy 70 21.1 60 15.6 71 71 ENE 14 22 30.17 1022 10 16 0.00 0.00
10:10 am 10:10 Mostly Cloudy 70 21.1 59 15 68 68 E 13 20 30.18 1022 10 16 0.00 0.00
10:14 am 10:14 Mostly Cloudy 71 21.7 60 15.6 68 68 ENE 16 26 30.18 1022 10 16 0.00 0.00
10:52 am 10:52 Cloudy 71 21.7 60 15.6 68 68 E 10 17 30.19 1022 10 16 0.00 0.00
11:19 am 11:19 Cloudy 69 20.6 59 15 70 70 NE 16 26 30.21 1023 10 16 0.00 0.00
11:52 am 11:52 Cloudy 69 20.6 58 14.4 68 68 NE 15 24 30.22 1023 10 16 0.00 0.00
12:23 pm 12:23 Cloudy 70 21.1 59 15 68 68 E 10 17 30.21 1023 10 16 0.00 0.00
12:52 pm 12:52 Cloudy 70 21.1 58 14.4 66 66 ESE 12 19 30.23 1024 10 16 0.00 0.00
1:44 pm 13:44 Cloudy 69 20.6 58 14.4 68 68 E 13 20 30.24 1024 10 16 0.00 0.00
1:52 pm 13:52 Cloudy 70 21.1 58 14.4 66 66 ENE 8 13 30.24 1024 10 16 0.00 0.00
2:17 pm 14:17 Cloudy 70 21.1 58 14.4 66 66 E 13 20 30.24 1024 10 16 0.00 0.00
2:52 pm 14:52 Cloudy 70 21.1 58 14.4 66 66 E 13 20 30.24 1024 10 16 0.00 0.00
3:52 pm 15:52 Cloudy 70 21.1 57 13.9 64 64 ENE 12 19 30.23 1024 10 16 0.00 0.00
4:52 pm 16:52 Cloudy 70 21.1 56 13.3 61 61 ENE 12 19 30.23 1024 10 16 0.00 0.00
5:52 pm 17:52 Cloudy 69 20.6 55 12.8 61 61 ESE 13 20 30.23 1024 10 16 0.00 0.00
6:52 pm 18:52 Cloudy 68 20 52 11.1 57 57 E 15 24 30.25 1025 10 16 0.00 0.00
7:52 pm 19:52 Cloudy 67 19.4 49 9.4 53 53 E 13 20 30.27 1025 10 16 0.00 0.00
8:52 pm 20:52 Cloudy 66 18.9 51 10.6 59 59 E 14 22 30.28 1025 10 16 0.00 0.00
9:52 pm 21:52 Cloudy 65 18.3 51 10.6 61 61 ESE 10 17 30.30 1026 10 16 0.00 0.00
10:52 pm 22:52 Cloudy 64 17.8 50 10 60 60 E 12 19 30.31 1027 10 16 0.00 0.00
11:52 pm 23:52 Cloudy 62 16.7 41 5 46 46 ESE 13 20 30.29 1026 10 16 0.00 0.00

Powered by AerisWeather